{"data":{"norad_id":60059,"intl_designator":"2024-113A","name":"STARLINK-11181 [DTC]","alt_names":[],"object_type":"PAYLOAD","status":"ACTIVE","operator":null,"country":"US","launch_date":"2024-06-19","launch_site_code":"AFWTR","launch_vehicle":null,"mission":null,"orbit_class":"UNKNOWN","rcs_meters":null,"size_class":null,"mass_kg":null,"dimensions":null,"purposes":["comms"],"wikipedia_slug":null,"has_3d_model":false,"image_url":null,"decayed_at":null,"tle_current":{"epoch":"2026-05-24T10:03:58.179168Z","epoch_age_seconds":128696,"freshness":"FRESH","line1":"1 60059U 24113A   26144.41942337  .00000751  00000+0  11052-4 0  9996","line2":"2 60059  53.1592 178.0234 0000951  81.8732 278.2394 15.69706522111456","mean_motion":15.69706522,"eccentricity":9.51e-5,"inclination_deg":53.1592,"raan_deg":178.0234,"arg_perigee_deg":81.8732,"mean_anomaly_deg":278.2394,"bstar":1.1052e-5,"rev_number":11145,"period_min":91.736893477722,"perigee_km":359.09593135368,"apogee_km":360.37747493202,"semimajor_km":6737.8737031428,"source":"CELESTRAK","updated_at":"2026-05-25T13:38:19.156325Z"}}}